Showing default

OSCAR 7, 7530

Orbit data source: Space-Track

OSCAR 7, 7530 is a payload satellite owned by AMSAT-NA (US) in SSO that was launched on Fri, 15 Nov 1974 UTC via a DELTA 2310 launch vehicle from the Air Force Western Test Range (AFWTR). Payload-class satellites include a variety of spacecraft equipped with specific instruments for various scientific and technological missions. These include communications satellites like Starlink; space stations such as the ISS; scientific satellites like the Hubble; Earth observation satellites from companies like Planet Labs, Umbra, and HawkEye 360; GPS; miniature CubeSats for education and research; and military/defense satellites.

Loading next visibility...
Identifier
7530, 1974-089B
Orbit
SSO
Country
Flag of USUS
Related business
Manufacturer
AMSAT-NA
Mission
Partially operational spacecraft
Bus & Motor
AMSAT PHASE 2, Unknown motor
Mass
29 kg wet, 29 kg dry
Launch date (UTC)
1974-11-15 (52 years ago)
Launch vehicle
DELTA 2310
Launch site
Air Force Western Test Range (AFWTR)
Object type
Payload
Rocket body
Debris
Shape & HBR
OCT CYL, 0.2 m
Radar Cross Section
Medium (>0.1 m² and <1 m²)

Expand to show TLE details & history
Last TLE update: 10 hours ago

TLE from 10 hours ago
0 OSCAR 7
1 07530U 74089B   26207.65539451 -.00000025  00000-0  13291-3 0  9995
2 07530 101.9910 221.3137 0012589  57.0910  60.8894 12.53698736365463
Epoch: 2026-07-26T15:43Z
TLE epoch observation values (Epoch: 2026-07-26T15:43:46.085Z)
Latitude
59.72747°
Longitude
-117.75071°
Altitude
1,454.226 km
Speed
7.143 km/s
True Right ascension
04h 10m 09s
True Declination
59° 35' 27"
Sunlit
Object was in daylight at epoch
Visualization orbit readout
Latitude
Unknown
Longitude
Unknown
Altitude
Unknown
Speed
Unknown
Apparent Right ascension
Unknown
Apparent Declination
Unknown
Sunlit
N/A
Visualization observer readout
Local Sidereal Time
15:06:01
Azimuth
Unknown
Elevation
Unknown
Doppler factor
Unknown
Orbital elements
Apogee altitude
1,456.469 km
Perigee altitude
1,436.768 km
Semi-major axis
7,824.755 km
Eccentricity
0.00126
Inclination
101.991°
RAAN
221.3137°
Arg. of periapsis
57.091°
True anomaly
61.01553°
Mean anomaly
60.8894°
Eccentric anomaly
60.95246°
Mean motion
3.13572 °/min
Orbital period
114.81 mins
BSTAR
0.00013291
Loading maneuver chart data...
Computing Atmospheric mass density...

Documentation

Showing up to 5 results
|